Location: Antioch Baptist Church
(32.6696°N, 85.7327°W)
Time: 09:40:07
(UTC+00:00)

Cosmos-2242 - Pass Details

Date: 04 November 2020
Orbit: 592 x 616 km, 82.5° (Epoch: 03 December)

Event Time Altitude Azimuth Distance (km) Brightness Sun altitude
Rises 10:46:15 0° 6° (N) 2,887 6.5 -16.7°
Reaches altitude 10° 10:48:43 10° 17° (NNE) 1,980 5.8 -16.2°
Maximum altitude 10:52:34 30° 79° (E) 1,112 5.1 -15.4°
Drops below altitude 10° 10:56:25 10° 141° (SE) 1,970 6.4 -14.6°
Sets 10:58:51 0° 152° (SSE) 2,870 7.1 -14.0°
